Theta_e
350 353 355 357 358 354 354 354 352 345 355 367 354 357 361 369 357 358 361 361 359 358 358 357 357 358 351 352 354 359 353 352 351 348 347 347 351 356 352 354 361 356 357
347 349 353 354 352 351 351 352 347 342 347 353 358 359 359 359 362 360 360 359 357 358 356 358 359 360 353 354 353 351 353 353 352 343 340 334 340 347 352 353 353 355 361
346 347 348 351 350 349 351 351 350 345 343 345 354 356 357 357 353 352 348 351 352 353 354 354 354 358 357 353 354 352 349 345 348 350 341 333 331 344 350 352 352 356 365
344 343 344 346 350 346 348 351 350 348 348 350 352 355 354 348 347 347 348 350 350 351 351 351 352 351 359 358 351 349 346 349 345 352 346 348 346 341 340 347 349 354 358
340 340 342 344 347 345 347 346 351 351 352 353 355 356 351 348 347 346 350 351 351 350 349 350 350 352 349 354 352 350 345 345 349 351 345 349 345 348 342 338 344 348 352
338 340 345 345 346 347 346 344 347 349 354 358 357 352 346 346 344 346 344 344 345 346 350 350 350 352 354 353 355 351 344 344 349 353 350 344 341 340 344 340 342 341 346
338 340 341 340 345 345 344 346 351 353 357 354 352 350 349 346 345 346 343 345 343 347 351 350 350 350 352 353 352 349 347 346 349 351 350 348 344 343 350 346 335 338 340
337 338 340 341 342 342 345 345 348 351 354 353 351 351 348 346 346 347 345 344 345 348 350 349 349 349 350 350 352 355 352 351 353 350 353 351 347 347 345 341 342 335 341
336 338 340 342 343 342 346 348 350 352 354 352 351 350 349 349 347 349 348 345 348 347 350 350 349 347 349 350 350 347 351 352 353 352 352 352 350 350 347 345 342 337 328
340 342 342 343 342 345 350 351 353 354 352 351 349 347 347 349 348 347 346 345 348 349 347 348 348 350 350 351 351 352 351 348 350 349 347 351 350 350 348 343 343 352 340
342 343 343 344 343 345 348 350 352 351 349 349 348 346 348 348 348 346 347 345 346 346 346 343 342 346 348 350 351 349 344 344 343 343 344 344 348 346 346 354 351 350 348
343 345 345 343 344 344 346 347 347 346 348 349 349 347 349 349 347 346 346 345 344 345 344 344 341 341 342 345 345 342 341 340 339 339 340 341 342 347 349 350 347 346 345
343 344 345 345 345 343 343 347 346 345 347 348 348 347 348 349 347 345 346 346 344 343 343 342 340 341 340 338 335 335 333 330 333 334 334 335 340 338 338 335 335 338 338
342 344 344 342 340 344 346 347 346 346 347 348 348 347 349 349 346 345 343 344 343 342 342 342 340 340 339 340 339 336 333 331 329 329 328 327 329 330 330 328 329 332 331
340 342 341 339 342 346 347 348 348 348 349 348 347 347 349 350 348 343 341 342 341 341 340 339 339 339 337 335 338 335 334 331 328 323 322 324 325 324 325 327 326 330 329
340 339 337 339 344 345 346 346 347 349 350 348 347 349 349 348 345 342 340 340 338 338 337 336 336 335 331 318 323 332 332 331 329 325 324 322 319 317 318 319 320 323 329
340 336 337 340 345 346 346 345 346 346 348 348 347 348 349 347 343 343 340 339 335 335 333 333 334 333 329 316 318 326 333 330 329 328 324 322 319 319 321 318 319 318 319
341 341 341 342 342 341 342 341 343 345 345 342 342 346 347 345 340 342 338 336 333 331 331 332 333 331 320 312 314 322 329 328 328 328 327 325 324 322 323 321 318 317 318
343 340 338 338 337 336 338 339 341 341 339 335 333 336 335 343 338 338 336 337 332 329 329 333 333 330 323 309 310 322 327 325 324 324 323 322 320 311 314 321 318 315 312
332 334 334 332 330 327 333 334 333 331 330 327 330 331 330 337 336 337 334 335 332 330 328 328 329 317 323 306 307 317 324 323 320 321 318 307 314 306 308 323 321 317 316
329 331 332 330 328 328 327 327 326 324 323 323 322 320 320 324 328 329 331 328 329 327 326 320 313 315 316 315 305 307 326 323 319 314 311 308 302 302 303 308 318 313 313
327 328 326 324 324 325 325 323 321 320 321 320 318 316 315 314 315 317 321 323 321 321 322 320 316 314 314 306 304 304 307 312 313 307 307 305 299 298 300 306 301 303 308
326 327 324 320 321 322 323 318 316 318 316 315 314 313 312 311 311 311 313 311 312 310 308 307 305 306 309 307 302 303 305 306 310 310 303 301 298 298 302 301 302 303 311
324 324 321 319 317 318 318 318 316 317 316 313 311 310 310 310 311 311 311 309 309 307 306 306 306 308 310 310 310 308 306 305 304 304 307 306 304 302 306 307 308 308 308
322 322 320 318 316 317 317 317 317 317 315 314 313 311 309 306 302 300 302 305 305 307 310 309 310 307 308 308 303 304 310 307 306 305 309 309 309 308 307 308 308 309 309
319 318 318 318 318 317 317 317 318 319 318 315 313 310 307 305 304 303 300 297 297 296 295 298 304 302 297 294 294 294 294 297 298 307 310 310 310 309 308 307 306 306 305
Wind_Speed
9 9 9 10 11 12 13 13 14 7 6 5 5 6 6 4 3 5 5 7 8 10 10 9 9 9 9 9 8 8 10 8 8 7 10 9 9 8 8 9 7 10 11
11 10 9 9 11 11 10 9 8 5 2 3 2 3 3 2 3 3 4 6 8 9 9 11 10 10 6 10 10 10 8 8 8 8 9 9 8 9 8 8 8 10 8
11 10 9 10 9 9 8 7 12 8 3 3 4 4 5 6 5 2 4 3 6 8 8 10 10 10 9 8 10 10 11 10 5 10 8 6 7 1 6 10 8 9 7
11 8 9 10 10 8 6 6 13 12 10 10 7 2 1 3 4 4 4 6 5 8 8 10 10 9 8 9 9 10 10 7 8 5 10 11 5 3 3 4 7 8 9
10 7 9 10 9 7 8 9 11 10 7 7 5 4 1 2 3 4 5 4 5 6 8 8 10 8 7 10 10 11 6 5 7 7 8 9 9 6 4 2 1 5 7
8 7 10 9 10 9 9 9 10 10 8 7 7 5 4 3 5 5 5 6 5 4 3 7 7 7 8 9 9 11 8 7 8 7 10 8 9 9 5 2 2 2 3
9 10 11 10 11 11 11 11 11 9 10 9 8 6 4 3 3 6 5 8 7 6 6 6 4 5 8 7 6 8 9 9 10 11 9 9 9 6 5 5 5 2 4
9 9 11 10 11 11 11 9 8 8 8 8 7 6 3 4 3 5 7 6 6 5 7 5 5 4 6 6 6 7 8 9 9 13 10 7 8 5 8 6 4 3 3
8 8 10 9 10 9 8 8 8 9 8 8 6 5 4 4 5 5 7 7 6 6 7 6 3 2 3 4 6 6 6 6 8 8 7 8 7 7 6 6 5 3 3
9 9 8 9 9 8 8 10 9 9 8 7 5 5 4 3 4 4 6 7 7 7 7 8 6 6 5 2 4 4 4 4 3 3 5 6 6 7 6 6 7 5 4
11 10 9 10 9 9 9 9 8 8 7 5 5 4 4 4 4 4 5 6 6 7 8 8 8 7 7 6 2 4 3 1 2 3 4 5 5 7 6 5 5 5 5
11 11 11 10 10 10 9 8 7 6 6 5 4 4 3 2 4 4 6 6 6 7 8 9 9 9 10 10 9 7 6 4 3 1 1 2 3 6 6 5 6 5 3
14 13 12 12 9 4 9 8 7 7 7 6 5 4 3 2 3 5 6 6 6 7 8 9 9 10 10 10 10 10 10 9 8 9 8 7 7 5 5 6 6 3 1
16 14 13 12 10 10 9 7 7 7 7 7 7 5 3 1 3 4 4 5 5 6 7 8 10 10 10 10 9 9 10 10 9 10 10 9 8 7 7 5 5 4 4
16 14 13 10 10 9 8 7 7 6 6 7 5 5 3 2 3 3 4 4 4 5 5 7 8 9 10 9 9 10 10 10 10 10 10 10 13 18 14 4 5 4 3
17 15 11 11 10 9 8 7 5 6 7 6 6 5 5 5 4 4 4 4 5 5 6 7 7 9 8 9 9 8 8 8 8 8 8 8 12 15 17 17 17 10 4
16 15 12 10 8 8 5 5 3 3 4 3 5 6 6 7 6 6 5 5 5 5 5 5 7 9 9 9 10 8 8 8 8 8 7 8 8 9 11 11 15 16 17
16 13 10 9 7 6 6 4 3 2 1 3 6 6 7 7 9 7 6 5 5 5 5 5 6 8 7 6 5 3 9 9 10 10 10 10 10 9 9 12 14 15 14
11 10 9 9 7 6 4 5 1 2 4 4 5 8 8 5 9 9 7 6 7 6 5 5 6 7 7 5 6 1 8 9 9 10 11 9 9 8 11 9 11 12 12
9 10 10 9 8 5 2 3 4 5 6 6 7 7 7 5 7 9 8 7 6 7 5 6 6 6 7 6 8 6 6 8 8 9 10 15 9 9 12 6 7 9 8
11 10 8 8 7 5 5 6 6 7 6 6 6 7 7 6 5 6 7 7 6 7 7 8 6 7 7 6 9 13 3 5 6 7 7 7 10 11 12 10 7 7 6
11 8 8 8 6 6 5 6 6 5 5 6 7 7 6 5 5 7 4 6 6 7 7 7 6 6 7 10 10 12 12 10 8 7 6 7 9 10 9 8 3 2 8
9 8 8 8 6 6 5 5 4 5 5 6 6 6 7 7 6 7 6 7 6 6 5 5 4 3 4 5 9 9 10 8 7 7 8 8 8 11 9 5 4 11 2
8 9 8 7 7 6 6 6 5 4 6 6 6 6 7 7 7 5 4 4 3 5 4 5 4 4 4 4 5 6 6 10 9 9 5 8 8 9 5 6 1 5 5
7 7 8 7 7 6 6 6 5 5 7 6 7 7 6 8 8 8 6 4 6 3 3 4 5 4 4 4 3 1 4 4 4 7 7 5 3 4 4 4 3 3 3
8 8 8 9 8 7 7 6 5 6 7 8 6 6 6 6 6 7 8 14 9 11 9 9 4 5 8 6 7 8 6 5 4 6 3 2 2 2 2 3 4 4 2
Wind_Direction
180 182 176 174 160 168 162 155 162 133 148 159 171 219 230 224 234 237 251 252 244 238 233 246 241 221 241 247 238 250 252 247 243 253 253 245 240 221 231 232 239 222 229
183 179 173 162 180 172 186 157 126 119 112 98 126 256 275 280 278 273 278 276 268 255 262 260 239 239 230 226 230 225 236 238 220 242 253 256 234 219 217 227 227 232 221
191 187 180 158 174 166 194 217 171 138 138 66 225 205 208 213 221 211 272 279 275 272 264 250 257 251 227 220 222 210 220 240 214 224 240 253 237 244 185 217 229 223 226
198 187 169 150 162 155 136 156 166 157 160 179 212 219 2 313 9 303 336 299 286 278 272 260 255 241 239 235 221 211 212 230 225 222 234 247 296 242 228 241 220 239 231
190 178 151 158 156 142 140 150 163 170 165 164 190 182 11 30 343 341 331 321 272 283 292 273 256 235 226 231 226 210 191 223 229 219 229 227 229 254 272 198 281 233 253
170 144 136 148 144 140 142 144 152 151 153 150 120 101 80 14 356 8 336 341 325 324 325 289 269 256 234 236 224 210 199 208 230 229 237 224 217 222 222 236 231 242 273
159 155 157 162 150 147 146 135 137 134 130 129 123 113 108 44 27 337 2 319 339 338 6 319 276 251 241 230 212 198 205 214 227 228 228 232 258 228 231 215 233 242 308
161 166 156 160 154 150 151 149 157 149 131 127 120 116 86 45 358 26 341 339 337 341 318 330 323 277 242 214 211 215 201 215 223 223 225 231 249 254 234 246 231 245 246
164 161 155 156 148 145 147 135 135 135 134 125 113 113 90 49 21 350 328 358 355 341 355 342 349 287 201 200 201 233 243 239 226 218 210 225 235 227 246 232 224 183 247
147 147 158 153 154 140 133 129 135 135 136 127 118 122 112 66 28 8 355 349 353 1 4 359 354 354 345 290 239 238 242 213 201 187 215 228 247 246 211 235 251 211 213
153 145 142 141 156 152 140 127 131 135 136 136 135 145 95 73 39 12 14 355 357 10 26 25 15 11 14 20 62 76 33 38 127 228 222 240 251 255 252 237 236 221 235
146 145 143 146 157 141 137 132 133 143 149 153 168 152 117 55 40 21 30 18 19 25 35 43 43 39 37 34 44 61 56 57 46 353 269 281 310 269 278 297 282 257 201
146 147 140 139 139 126 138 137 144 151 165 170 189 165 142 80 42 45 35 35 33 40 46 55 51 54 60 60 58 58 61 48 49 49 47 45 34 26 54 41 21 339 78
157 154 149 148 148 172 152 156 160 171 163 202 186 153 168 105 69 72 64 46 44 50 56 58 65 66 63 64 71 76 74 71 62 59 56 49 48 49 61 53 40 49 66
167 155 157 172 173 160 155 173 179 178 180 194 188 170 190 189 130 100 97 77 47 47 53 66 67 65 57 45 66 75 77 76 72 60 55 56 65 62 56 55 31 57 77
174 156 164 162 165 163 176 178 194 203 206 196 205 204 211 212 170 165 139 122 85 50 49 59 69 68 63 16 34 73 80 75 75 74 75 80 75 70 70 71 67 59 67
175 165 162 162 166 162 158 159 112 302 285 258 245 241 236 223 164 184 166 149 115 93 85 80 83 83 76 35 41 41 76 75 78 79 78 80 80 81 93 99 89 74 67
176 167 149 144 153 141 137 157 151 126 152 335 306 295 275 227 154 191 180 154 134 117 112 105 102 96 77 34 42 62 87 86 80 79 77 80 75 47 81 84 79 69 56
148 145 148 130 130 124 114 114 120 42 11 350 332 321 328 204 169 181 164 167 141 140 141 127 120 107 95 25 342 9 109 94 83 71 49 81 80 16 350 94 94 89 91
136 139 130 129 117 94 89 113 74 41 31 1 340 332 303 199 180 167 165 158 158 152 140 113 89 53 103 27 353 348 123 120 110 102 85 48 52 18 359 101 103 96 83
128 134 125 103 92 89 81 70 57 55 27 10 3 10 11 50 98 132 157 154 155 137 135 110 54 49 23 65 5 355 110 130 98 67 66 54 44 44 35 20 91 94 108
132 121 117 105 96 88 85 82 68 43 36 35 36 33 42 48 58 81 93 117 117 142 135 123 93 60 49 34 47 47 49 59 101 97 93 84 72 65 54 87 48 248 264
130 121 111 104 87 73 81 93 65 56 57 62 57 62 67 64 67 82 88 83 71 81 90 98 92 74 70 77 68 77 90 59 102 102 100 130 137 132 104 69 288 264 97
132 121 121 113 100 89 86 92 92 100 95 89 81 68 72 72 67 67 67 84 117 120 122 124 122 134 117 101 98 100 97 95 103 150 143 89 79 54 108 171 174 49 41
130 131 130 127 120 120 111 114 124 122 109 103 98 90 83 79 71 53 35 43 38 60 111 127 119 123 135 133 94 104 133 116 117 166 176 168 143 127 116 106 98 114 118
128 124 130 135 134 136 127 118 124 141 123 108 95 94 98 87 85 87 75 49 58 58 62 65 89 74 80 94 83 81 84 116 258 240 175 148 127 103 107 126 133 133 128